| time (UTC) | temp F | wind direction | speed knots | gust knots | rain 1hr in | rain 24hr in | rain mn in | humidity % | barometer mb |
| 20260503224510 | 81 | 330 | 3.5 | 9.6 | 0.00 | 0.00 | 0.00 | 35 | 1010.8 |
| 20260503223003 | 82 | 13 | 2.6 | 6.1 | 0.00 | 0.00 | 0.00 | 34 | 1011.0 |
| 20260503221507 | 81 | 348 | 3.5 | 7.0 | 0.00 | 0.00 | 0.00 | 36 | 1011.3 |
| 20260503220012 | 80 | 302 | 3.5 | 10.4 | 0.00 | 0.00 | 0.00 | 37 | 1011.4 |
| 20260503214523 | 80 | 76 | 1.7 | 9.6 | 0.00 | 0.00 | 0.00 | 37 | 1011.5 |
| 20260503213014 | 80 | 9 | 1.7 | 7.8 | 0.00 | 0.00 | 0.00 | 39 | 1011.5 |
| 20260503211503 | 80 | 298 | 2.6 | 7.8 | 0.00 | 0.00 | 0.00 | 39 | 1011.6 |
| 20260503210035 | 80 | 288 | 3.5 | 7.8 | 0.00 | 0.00 | 0.00 | 36 | 1011.8 |
| 20260503204514 | 81 | 352 | 1.7 | 5.2 | 0.00 | 0.00 | 0.00 | 36 | 1011.9 |
| 20260503203018 | 81 | 90 | 0.9 | 7.0 | 0.00 | 0.00 | 0.00 | 36 | 1012.1 |
| 20260503201506 | 80 | 51 | 2.6 | 4.3 | 0.00 | 0.00 | 0.00 | 37 | 1012.2 |
| 20260503200015 | 77 | 9 | 2.6 | 7.0 | 0.00 | 0.00 | 0.00 | 39 | 1012.6 |
| 20260503194515 | 76 | 336 | 0.9 | 7.0 | 0.00 | 0.00 | 0.00 | 42 | 1012.7 |
| 20260503193017 | 75 | 352 | 4.3 | 9.6 | 0.00 | 0.00 | 0.00 | 42 | 1013.0 |
| 20260503191515 | 74 | 323 | 2.6 | 8.7 | 0.00 | 0.00 | 0.00 | 44 | 1013.2 |
| 20260503190005 | 73 | 329 | 3.5 | 9.6 | 0.00 | 0.00 | 0.00 | 46 | 1013.3 |
| 20260503184517 | 73 | 360 | 3.5 | 7.8 | 0.00 | 0.00 | 0.00 | 46 | 1013.6 |
| 20260503183023 | 72 | 315 | 5.2 | 9.6 | 0.00 | 0.00 | 0.00 | 47 | 1013.6 |
| 20260503181520 | 71 | 311 | 4.3 | 10.4 | 0.00 | 0.00 | 0.00 | 48 | 1013.8 |
| 20260503180018 | 72 | 352 | 5.2 | 9.6 | 0.00 | 0.00 | 0.00 | 47 | 1013.7 |
| 20260503174513 | 72 | 304 | 3.5 | 7.0 | 0.00 | 0.00 | 0.00 | 48 | 1013.7 |
| 20260503173014 | 71 | 107 | 0.9 | 7.8 | 0.00 | 0.00 | 0.00 | 51 | 1013.7 |
| 20260503171521 | 71 | 344 | 3.5 | 7.0 | 0.00 | 0.00 | 0.00 | 49 | 1013.8 |
| 20260503081530 | 56 | 70 | 0.0 | 0.0 | 0.00 | 0.00 | 0.00 | 73 | 1014.4 |
| 20260503071532 | 57 | 70 | 0.0 | 0.0 | 0.00 | 0.00 | 0.00 | 69 | 1014.2 |
| 20260503054534 | 62 | 70 | 0.0 | 1.7 | 0.00 | 0.00 | 0.00 | 59 | 1014.2 |
| 20260503053027 | 63 | 70 | 0.0 | 0.0 | 0.00 | 0.00 | 0.00 | 57 | 1014.2 |
| 20260503051510 | 64 | 70 | 0.0 | 0.0 | 0.00 | 0.00 | 0.00 | 1014.2 | |
| 20260503050018 | 64 | 70 | 0.0 | 0.0 | 0.00 | 0.00 | 0.00 | 56 | 1014.1 |
| 20260503044536 | 65 | 70 | 0.0 | 0.0 | 0.00 | 0.00 | 0.00 | 54 | 1014.0 |
| 20260503043023 | 66 | 70 | 0.0 | 0.0 | 0.00 | 0.00 | 0.00 | 52 | 1014.0 |
| 20260503041529 | 66 | 70 | 0.0 | 2.6 | 0.00 | 0.00 | 0.00 | 51 | 1013.9 |
| 20260503040014 | 67 | 77 | 0.0 | 1.7 | 0.00 | 0.00 | 0.00 | 50 | 1013.6 |
| 20260503034522 | 67 | 352 | 0.0 | 2.6 | 0.00 | 0.00 | 0.00 | 48 | 1013.5 |
| 20260503033023 | 68 | 342 | 0.9 | 2.6 | 0.00 | 0.00 | 0.00 | 46 | 1013.2 |
| 20260503031525 | 69 | 345 | 0.9 | 3.5 | 0.00 | 0.00 | 0.00 | 46 | 1013.1 |
| 20260503030030 | 69 | 323 | 2.6 | 5.2 | 0.00 | 0.00 | 0.00 | 45 | 1012.9 |
| 20260503024518 | 70 | 44 | 0.9 | 3.5 | 0.00 | 0.00 | 0.00 | 45 | 1012.9 |
| 20260503023024 | 70 | 318 | 0.9 | 7.8 | 0.00 | 0.00 | 0.00 | 44 | 1012.9 |
| 20260503021526 | 71 | 338 | 4.3 | 11.3 | 0.00 | 0.00 | 0.00 | 45 | 1012.9 |
| 20260503020010 | 71 | 302 | 3.5 | 9.6 | 0.00 | 0.00 | 0.00 | 47 | 1012.9 |
| 20260503014516 | 72 | 323 | 2.6 | 12.2 | 0.00 | 0.00 | 0.00 | 48 | 1012.9 |
| 20260503013003 | 72 | 317 | 3.5 | 11.3 | 0.00 | 0.00 | 0.00 | 47 | 1012.9 |
| 20260503011506 | 73 | 319 | 4.3 | 11.3 | 0.00 | 0.00 | 0.00 | 48 | 1013.0 |
| 20260503010008 | 73 | 331 | 5.2 | 9.6 | 0.00 | 0.00 | 0.00 | 47 | 1013.1 |
| 20260503004512 | 75 | 336 | 1.7 | 9.6 | 0.00 | 0.00 | 0.00 | 47 | 1013.2 |
| 20260503003017 | 75 | 341 | 3.5 | 9.6 | 0.00 | 0.00 | 0.00 | 48 | 1013.1 |
| 20260503001504 | 74 | 319 | 7.0 | 12.2 | 0.00 | 0.00 | 0.00 | 49 | 1013.1 |
| 20260503000008 | 75 | 330 | 7.0 | 14.8 | 0.00 | 0.00 | 0.00 | 47 | 1013.2 |
| 20260502234512 | 75 | 24 | 3.5 | 7.8 | 0.00 | 0.00 | 0.00 | 47 | 1013.3 |
| 20260502233017 | 75 | 331 | 1.7 | 10.4 | 0.00 | 0.00 | 0.00 | 48 | 1013.6 |
| 20260502231512 | 74 | 349 | 1.7 | 10.4 | 0.00 | 0.00 | 0.00 | 50 | 1013.8 |
| 20260502230025 | 74 | 333 | 1.7 | 12.2 | 0.00 | 0.00 | 0.00 | 49 | 1014.1 |